Home > Time Zones > World Clock > Weather > Iran > Bijar > Past weeks

Flag for Iran Weather past 2 weeks in Bijar, Iran

Now
82 °F

Sunny.


Feels Like: 80 °F
Forecast: 50 / 87 °F
Wind: 5 mph from South

Location: Sanandaj Airport

Current Time: Sep 20, 2014 at 1:11:45 PM

Latest Report: Sep 20, 2014 at 12:30 PM


Visibility: 10 mi

Pressure: 30.07 "Hg

Humidity: 14%

Dew point: 28 °F

Location of BijarLocation

Historic Weather in Bijar — Graph

°F

Bijar temperature yesterday

Maximum temperature yesterday: 91 °F (at 3:30 PM)
Minimum temperature yesterday: 48 °F (at 7:00 AM)
Average temperature yesterday: 71 °F

Past Weeks' High & Low Weather Summary

 TemperatureHumidityPressure
High97 °F (Sep 12, 3:30 PM)58% (Sep 17, 7:00 AM)30.18 "Hg (Sep 17, 7:00 AM)
Low48 °F (Sep 16, 7:00 AM)4% (Sep 5, 3:30 PM)29.77 "Hg (Sep 5, 4:30 PM)
Average75 °F23%29.97 "Hg
* Reported Sep 5 11:30 AM — Sep 20 11:30 AM, Bijar, Weather by CustomWeather, © 2014

Note: Actual official high and low records may vary slightly from our data, if they occured in-between our weather recording intervals... More about our weather records

Advertising

Bijar weather history for previous 24 hours

 ConditionsComfort  
Time TempWeatherWind HumidityBarometerVisibility
11:30 AM
Sep 20
77 °FSunny.2 mph17%30.09 "Hg10 mi
10:30 AM72 °FSunny.2 mph20%30.09 "Hg10 mi
9:30 AM64 °FSunny.No wind26%30.12 "Hg10 mi
9:00 AM59 °FSunny.2 mph34%30.12 "Hg10 mi
8:30 AM54 °FClear.2 mph41%30.12 "Hg10 mi
7:30 AM50 °FClear.No wind43%30.09 "Hg10 mi
7:00 AM48 °FClear.2 mph50%30.09 "Hg10 mi
6:22 AM48 °FClear.No wind46%30.09 "Hg10 mi
4:20 AM52 °FClear.No wind47%30.07 "Hg10 mi
2:22 AM55 °FClear.No wind38%30.09 "Hg10 mi
1:21 AM59 °FClear.No wind31%30.09 "Hg10 mi
11:20 PM
Sep 19
66 °FClear.No wind21%30.09 "Hg10 mi
8:20 PM81 °FSunny.9 mph12%30.07 "Hg10 mi
6:24 PM90 °FSunny.9 mph9%30.01 "Hg10 mi
6:00 PM90 °FSunny.12 mph8%30.01 "Hg10 mi
5:30 PM91 °FSunny.9 mph8%30.01 "Hg10 mi
5:00 PM91 °FSunny.9 mph8%30.01 "Hg10 mi
4:30 PM91 °FSunny.9 mph8%30.04 "Hg10 mi
4:00 PM91 °FSunny.7 mph8%30.04 "Hg10 mi
3:30 PM91 °FSunny.9 mph9%30.04 "Hg10 mi
2:30 PM90 °FSunny.9 mph9%30.07 "Hg10 mi
1:30 PM86 °FSunny.9 mph9%30.09 "Hg10 mi
Weather by CustomWeather, © 2014

See weather overviewHow to use our weather pages